Вернуться в каталог

CZ-6A DEB

АктивенSSO
NORAD 66789·DEBRIS·🇨🇳 China

Запущен Nov 11, 2022 с Taiyuan Satellite Launch Center

Loading…

Ближайшие Пролёты (ближайшие 24 часа)

TLE

СвежийSource: Space-Track

Эпоха: Sep 14, 2026, 11:01 UTC

1 66789U 22151AJF 26257.45947241  .00002414  00000-0  11292-2 0  9993
2 66789  98.8323 264.2245 0053136  68.5500 292.1332 14.20477055178001

Отслеживайте CZ-6A DEB в реальном времени с AllMySat

Download on the App Store